Regional Weather Roundup
Issued by NWS Albany, NY

Home | Current Version | Previous Version | Text Only | Print | Product List | Glossary On
Versions: 1 2 3 4 5 6 7 8 9 10 11 12 13 14 15 16 17 18 19 20 21 22 23 24 25 26 27
000
ASUS41 KALY 170210
RWRALY

NEW YORK STATE HOURLY WEATHER ROUNDUP
NATIONAL WEATHER SERVICE ALBANY NY
1000 PM EDT WED AUG 16 2017

NOTE: "FAIR" INDICATES FEW OR NO CLOUDS BELOW 12,000 FEET WITH NO
SIGNIFICANT WEATHER AND/OR NO OBSTRUCTIONS TO VISIBILITY.

NYZ032-033-038>043-046>054-057>066-NYZ062>081-082-084-170300-
EAST


CITY           SKY/WX    TMP DP  RH WIND       PRES   REMARKS
ALBANY         PTCLDY    67  57  70 N6        30.04R
GLENS FALLS    CLEAR     63  50  62 N9        30.05R
POUGHKEEPSIE   MOCLDY    69  62  78 CALM      30.01R
NEWBURGH       PTCLDY    72  68  88 VRB5      30.04R
MONTGOMERY     CLEAR     70  64  81 CALM      30.02R
WHITE PLAINS   PTCLDY    71  66  84 CALM      30.01R
ISLIP          PTCLDY    73  69  87 W5        30.00R
NEW YORK CITY  PTCLDY    81  64  56 E6        29.99R
CENTRAL PARK   CLEAR     78  61  55 W3        30.03R
$$

NYZ005>009-017-018-044>046-055-056-170300-
CENTRAL


CITY           SKY/WX    TMP DP  RH WIND       PRES   REMARKS
FULTON         CLEAR     55  53  93 S3        30.08R
SYRACUSE       PTCLDY    59  53  80 CALM      30.07S
ROME           CLEAR     61  51  70 CALM      30.08R
ELMIRA         CLEAR     66  61  84 NE5       30.08R
BINGHAMTON     CLEAR     62  55  77 N7        30.09R
MONTICELLO     CLEAR     65  57  75 N6        30.09R
$$

NYZ026>034-041>043-087-170300-
NORTH


CITY           SKY/WX    TMP DP  RH WIND       PRES   REMARKS
WATERTOWN      CLEAR     54  54 100 SE3       30.07S
FORT DRUM      NOT AVBL
OGDENSBURG     FAIR      55  53  92 CALM      30.06F
MASSENA        CLEAR     57  55  93 CALM      30.06S
SARANAC LAKE   CLEAR     48  48 100 CALM      30.09R
PLATTSBURGH    CLEAR     55  51  86 CALM      30.04R
$$

NYZ001>004-010>016-019>021-085-170300-
WEST


CITY           SKY/WX    TMP DP  RH WIND       PRES   REMARKS
NIAGARA FALLS  CLEAR     68  60  75 E3        30.05S
BUFFALO        CLEAR     68  61  78 E9        30.06R
DUNKIRK        CLEAR     64  62  93 CALM      30.05S
JAMESTOWN      CLEAR     66  61  82 NE5       30.10R
WELLSVILLE     CLEAR     64  57  78 E5        30.13R
ROCHESTER      CLEAR     65  55  70 SE3       30.08R
PENN YAN       CLEAR     59  55  87 CALM      30.10R
$$

             KEY
       WCI = WIND CHILL INDEX
       VSB = VISIBILITY
       HX  = HEAT INDEX
$$




USA.gov is the U.S. government's official web portal to all federal, state and local government web resources and services.